Weather History for East Cameron 278, LA

Change the Weather History Date:

Monday, March 3, 2014

  Actual Average Record
Temperature  
Mean Temperature 58 °F -  
Max Temperature 69 °F - - ()
Min Temperature 46 °F - - ()
Degree Days  
Heating Degree Days 8    
Growing Degree Days 8 (Base 50)    
Moisture  
Dew Point 47 °F    
Average Humidity 88    
Maximum Humidity 100    
Minimum Humidity 76    
Precipitation  
Precipitation 0.00 in - - ()
Sea Level Pressure  
Sea Level Pressure 30.10 in    
Wind  
Wind Speed 23 mph (North)    
Max Wind Speed 32 mph    
Max Gust Speed 37 mph    
Visibility 8 miles    
Events      
T = Trace of Precipitation, MM = Missing Value Source: NWS Daily Summary

Daily Weather History Graph

Daily Weather History Graph

Search for Another Location

Airport:

Trip Planner

Search our weather history database for the weather conditions in past years. The results will help you decide how hot, cold, wet, or windy it might be!

Date:

Astronomy

Mar. 03, 2014 Rise Set
Actual Time 6:34 AM CST 6:12 PM CST
Civil Twilight 6:10 AM CST 6:36 PM CST
Nautical Twilight 5:43 AM CST 7:03 PM CST
Astronomical Twilight 5:16 AM CST 7:31 PM CST
Moon 7:58 AM CST (3/3) 8:58 PM CST (3/3)
Length of Visible Light 12h 25m
Length of Day
11h 38m
Waxing Crescent, 8% of the Moon is Illuminated
Mar 3
Waxing Crescent
Mar 8
First Quarter
Mar 16
Full
Mar 23
Last Quarter
Mar 30
New

Hourly Weather History & Observations

Time (CST) Temp. Windchill Dew Point Humidity Pressure Visibility Wind Dir Wind Speed Gust Speed Precip Events Conditions
12:15 AM 69.8 °F - 68.0 °F 94% 29.99 in 5.0 mi SSW 13.8 mph - N/A   Mist
12:35 AM 69.8 °F - 68.0 °F 94% 29.99 in 5.0 mi SSW 13.8 mph - N/A   Mist
12:55 AM 69.8 °F - 68.0 °F 94% 29.98 in 4.0 mi SSW 12.7 mph - N/A   Overcast
1:15 AM 69.8 °F - 68.0 °F 94% 29.98 in 5.0 mi SSW 11.5 mph - N/A   Mostly Cloudy
1:35 AM 60.8 °F - 59.0 °F 94% 30.00 in 1.5 mi NNW 23.0 mph 29.9 mph N/A   Overcast
1:55 AM 57.2 °F - 57.2 °F 100% 30.00 in 1.2 mi NNW 24.2 mph 32.2 mph N/A   Overcast
2:15 AM 59.0 °F - 57.2 °F 94% 30.00 in 2.0 mi NNW 21.9 mph 27.6 mph N/A   Overcast
2:35 AM 57.2 °F - 57.2 °F 100% 30.00 in 4.0 mi NNW 20.7 mph 26.5 mph N/A   Overcast
2:55 AM 57.2 °F - 55.4 °F 94% 30.00 in 4.0 mi NNW 19.6 mph 26.5 mph N/A   Overcast
3:15 AM 55.4 °F - 55.4 °F 100% 30.01 in 6.0 mi NNW 23.0 mph 32.2 mph N/A   Overcast
3:35 AM 55.4 °F - 53.6 °F 94% 30.01 in 7.0 mi NNW 23.0 mph 31.1 mph N/A   Overcast
3:55 AM 55.4 °F - 53.6 °F 94% 30.02 in 5.0 mi North 27.6 mph 34.5 mph N/A   Overcast
4:15 AM 53.6 °F - 51.8 °F 94% 30.02 in 5.0 mi North 25.3 mph 33.4 mph N/A   Mostly Cloudy
4:35 AM 53.6 °F - 51.8 °F 94% 30.02 in 7.0 mi North 28.8 mph - N/A   Mostly Cloudy
4:55 AM 53.6 °F - 51.8 °F 94% 30.03 in 6.0 mi North 28.8 mph - N/A   Mostly Cloudy
5:15 AM 53.6 °F - 50.0 °F 88% 30.04 in 7.0 mi North 25.3 mph 32.2 mph N/A   Mostly Cloudy
5:35 AM 51.8 °F - 50.0 °F 94% 30.05 in 7.0 mi North 29.9 mph - N/A   Mostly Cloudy
5:55 AM 51.8 °F - 48.2 °F 88% 30.05 in 9.0 mi North 31.1 mph - N/A   Scattered Clouds
6:15 AM 51.8 °F - 48.2 °F 88% 30.06 in 9.0 mi North 31.1 mph - N/A   Mostly Cloudy
6:35 AM 51.8 °F - 48.2 °F 88% 30.07 in 10.0 mi North 31.1 mph - N/A   Overcast
6:55 AM 51.8 °F - 48.2 °F 88% 30.07 in 7.0 mi North 32.2 mph - N/A   Overcast
7:15 AM 50.0 °F - 48.2 °F 94% 30.10 in 8.0 mi North 27.6 mph 34.5 mph N/A   Overcast
7:35 AM 50.0 °F - 48.2 °F 94% 30.10 in 10.0 mi North 27.6 mph - N/A   Overcast
7:55 AM 50.0 °F - 48.2 °F 94% 30.11 in 8.0 mi North 31.1 mph 36.8 mph N/A   Overcast
8:15 AM 50.0 °F - 46.4 °F 87% 30.13 in 9.0 mi North 27.6 mph 34.5 mph N/A   Overcast
8:35 AM 50.0 °F - 46.4 °F 87% 30.14 in 8.0 mi North 27.6 mph 36.8 mph N/A   Overcast
8:55 AM 48.2 °F - 46.4 °F 93% 30.14 in 8.0 mi North 31.1 mph - N/A   Overcast
9:15 AM 48.2 °F - 46.4 °F 93% 30.15 in 8.0 mi North 29.9 mph - N/A   Overcast
9:35 AM 48.2 °F - 46.4 °F 93% 30.15 in 8.0 mi North 27.6 mph 35.7 mph N/A   Overcast
9:55 AM 48.2 °F - 46.4 °F 93% 30.16 in 9.0 mi North 28.8 mph - N/A   Overcast
10:15 AM 48.2 °F - 44.6 °F 87% 30.16 in 9.0 mi North 29.9 mph - N/A   Overcast
10:35 AM 48.2 °F - 44.6 °F 87% 30.16 in 9.0 mi NNE 28.8 mph 35.7 mph N/A   Overcast
10:55 AM 48.2 °F - 44.6 °F 87% 30.16 in 9.0 mi North 29.9 mph - N/A   Overcast
11:15 AM 48.2 °F - 44.6 °F 87% 30.16 in 9.0 mi North 31.1 mph - N/A   Overcast
11:35 AM 48.2 °F - 44.6 °F 87% 30.16 in 9.0 mi NNE 29.9 mph - N/A   Overcast
11:55 AM 48.2 °F - 44.6 °F 87% 30.17 in 10.0 mi NNE 27.6 mph - N/A   Mostly Cloudy
12:15 PM 48.2 °F - 44.6 °F 87% 30.16 in 9.0 mi NNE 25.3 mph - N/A   Mostly Cloudy
12:35 PM 48.2 °F - 44.6 °F 87% 30.16 in 9.0 mi North 27.6 mph 33.4 mph N/A   Overcast
12:55 PM 48.2 °F - 44.6 °F 87% 30.15 in 10.0 mi NNE 27.6 mph 33.4 mph N/A   Overcast
1:15 PM 48.2 °F - 42.8 °F 82% 30.14 in 10.0 mi NNE 27.6 mph - N/A   Mostly Cloudy
1:35 PM 48.2 °F - 42.8 °F 82% 30.13 in 10.0 mi NNE 27.6 mph - N/A   Mostly Cloudy
1:55 PM 50.0 °F - 44.6 °F 82% 30.13 in 10.0 mi North 25.3 mph - N/A   Mostly Cloudy
2:15 PM 48.2 °F - 44.6 °F 87% 30.12 in 9.0 mi North 26.5 mph - N/A   Overcast
2:35 PM 48.2 °F - 44.6 °F 87% 30.12 in 10.0 mi North 27.6 mph - N/A   Mostly Cloudy
2:55 PM 48.2 °F - 44.6 °F 87% 30.12 in 9.0 mi NNE 26.5 mph - N/A   Overcast
3:15 PM 48.2 °F - 42.8 °F 82% 30.11 in 10.0 mi North 27.6 mph - N/A   Overcast
3:35 PM 48.2 °F - 44.6 °F 87% 30.10 in 10.0 mi NNE 27.6 mph - N/A   Overcast
3:55 PM 50.0 °F - 44.6 °F 82% 30.10 in 9.0 mi North 28.8 mph - N/A   Overcast
4:15 PM 50.0 °F - 44.6 °F 82% 30.10 in 9.0 mi NNE 27.6 mph - N/A   Overcast
4:35 PM 50.0 °F - 42.8 °F 76% 30.11 in 9.0 mi NNE 26.5 mph 33.4 mph N/A   Overcast
4:55 PM 50.0 °F - 44.6 °F 82% 30.12 in 10.0 mi NNE 26.5 mph - N/A   Overcast
5:15 PM 50.0 °F - 42.8 °F 76% 30.13 in 9.0 mi NNE 25.3 mph - N/A   Overcast
5:35 PM 50.0 °F - 42.8 °F 76% 30.14 in 9.0 mi NNE 24.2 mph - N/A   Overcast
5:55 PM 50.0 °F - 42.8 °F 76% 30.15 in 9.0 mi NNE 23.0 mph - N/A   Overcast
6:15 PM 48.2 °F - 42.8 °F 82% 30.14 in 9.0 mi NNE 23.0 mph 28.8 mph N/A   Overcast
6:35 PM 48.2 °F - 42.8 °F 82% 30.15 in 9.0 mi NNE 20.7 mph 26.5 mph N/A   Overcast
6:55 PM 48.2 °F - 42.8 °F 82% 30.15 in 10.0 mi NNE 21.9 mph - N/A   Overcast
7:15 PM 48.2 °F - 42.8 °F 82% 30.14 in 10.0 mi NNE 24.2 mph - N/A   Overcast
7:35 PM 48.2 °F - 42.8 °F 82% 30.14 in 10.0 mi NNE 26.5 mph 33.4 mph N/A   Overcast
7:55 PM 48.2 °F - 42.8 °F 82% 30.13 in 10.0 mi NNE 27.6 mph 34.5 mph N/A   Overcast
8:15 PM 48.2 °F - 42.8 °F 82% 30.14 in 10.0 mi NNE 28.8 mph - N/A   Overcast
8:35 PM 48.2 °F - 42.8 °F 82% 30.15 in 10.0 mi NNE 25.3 mph - N/A   Overcast
8:55 PM 48.2 °F - 42.8 °F 82% 30.16 in 9.0 mi NE 24.2 mph - N/A   Overcast
9:15 PM 46.4 °F 38.3 °F 42.8 °F 87% 30.18 in 10.0 mi NNE 23.0 mph 29.9 mph N/A   Overcast
9:35 PM 46.4 °F 38.5 °F 42.8 °F 87% 30.18 in 10.0 mi NNE 21.9 mph 27.6 mph N/A   Overcast
9:55 PM 46.4 °F 37.4 °F 41.0 °F 81% 30.14 in 10.0 mi NE 28.8 mph - N/A   Overcast
10:15 PM 46.4 °F 39.5 °F 41.0 °F 81% 30.18 in 10.0 mi NNE 17.3 mph 27.6 mph N/A   Overcast
10:35 PM 46.4 °F 38.3 °F 41.0 °F 81% 30.15 in 10.0 mi NNE 23.0 mph - N/A   Overcast
10:55 PM 46.4 °F 38.3 °F 42.8 °F 87% 30.13 in 10.0 mi NE 23.0 mph 29.9 mph N/A   Overcast
11:15 PM 46.4 °F 38.3 °F 42.8 °F 87% 30.13 in 10.0 mi NE 23.0 mph - N/A   Overcast
11:35 PM 46.4 °F 39.5 °F 42.8 °F 87% 30.16 in 10.0 mi NNE 17.3 mph 25.3 mph N/A   Overcast
11:55 PM 46.4 °F 39.8 °F 42.8 °F 87% 30.16 in 10.0 mi NNE 16.1 mph 21.9 mph N/A   Overcast